Location: ?????
(33.1808°N, 35.7716°E)
Time: 10:16:16
(UTC+00:00)

Daily predictions for brighter satellites

Satellite Brightness Start Highest point End
(mag) Time Altitude Azimuth Time Altitude Azimuth Time Altitude Azimuth
Cosmos 1992 Rocket 4.0 15:23:11 10° S 15:28:20 65° ESE 15:33:31 10° NNE
CZ-4C R/B 3.4 15:22:30 10° NNW 15:29:34 42° NE 15:37:20 10° ESE
YAOGAN 6 3.4 15:30:58 10° SE 15:34:12 30° ENE 15:37:27 10° NNE
ATLAS 5 CENTAUR R/B 2.8 15:30:24 10° SW 15:34:18 41° NW 15:38:33 10° NNE
OAO 2 Rocket 3.5 15:30:53 10° W 15:36:11 83° N 15:41:32 10° ENE
YAOGAN 1 3.3 15:36:27 10° SE 15:40:15 31° ENE 15:44:05 10° N
SKYMED 2 3.5 15:36:01 10° NNE 15:40:23 83° ESE 15:44:43 10° S
CSL-04 Rocket 4.0 15:42:37 10° SE 15:47:52 45° ENE 15:53:07 10° N
Okean-O 3.6 15:47:24 10° S 15:51:42 52° W 15:56:02 10° NNW
SL-4 R/B 3.8 15:52:45 10° N 15:54:45 14° NNE 15:56:04 12° NE
Cosmos 1726 Rocket 3.5 15:51:01 10° S 15:55:26 83° E 15:59:51 10° N
Hubble Space Telescope 3.8 15:55:32 10° SSW 15:55:34 10° SSW 15:55:37 10° SSW
CZ-2D R/B 4.3 15:53:04 10° SE 15:56:09 24° ENE 15:59:16 10° NNE
Cosmos 2239 Rocket 4.4 15:50:44 10° N 15:56:50 64° E 16:02:53 10° SSE
OAO 3 Rocket 3.2 15:53:59 10° WSW 15:58:56 83° SSE 16:02:37 18° ENE
Atlas Centaur 2 3.4 15:53:41 10° W 15:59:25 36° SSW 16:04:01 10° SE
Abrixas rocket 3.1 15:57:04 10° SSW 15:59:45 28° SE 16:00:48 22° E
Nadezhda 3 Rocket 4.5 15:55:22 10° SSW 16:01:33 67° W 16:07:50 10° N
Cosmos 2058 Rocket 3.0 15:58:10 10° S 16:02:28 61° E 16:06:46 10° NNE
Cosmos 1821 Rocket 3.9 15:56:25 10° N 16:02:33 81° E 16:08:42 10° S
Cosmos 1953 3.6 16:00:19 10° SSW 16:04:11 45° W 16:08:06 10° N
Cosmos 1271 Rocket 2.7 16:02:27 10° N 16:06:25 70° E 16:10:23 10° SSE
Cosmos 2228 3.8 16:08:34 10° SSW 16:12:52 55° W 16:17:10 10° N
Shenzhou-11 Module 4.1 16:12:26 10° WNW 16:14:21 17° NNW 16:15:33 14° NNE
Envisat 3.8 16:10:13 10° S 16:15:10 54° W 16:20:09 10° NNW
Cosmos 1535 Rocket 4.4 16:10:57 10° N 16:17:07 67° E 16:23:11 10° SSE
Cosmos 1703 3.7 16:14:53 10° NNE 16:18:33 37° E 16:19:41 30° ESE
COSMOS 2406 4.1 16:14:27 10° N 16:19:24 29° ENE 16:20:45 26° E
Cosmos 1934 Rocket 4.0 16:13:06 10° N 16:19:25 69° E 16:25:45 10° SSE
Cosmos 292 Rocket 3.6 16:19:24 10° SSW 16:24:08 87° ESE 16:28:54 10° NNE
Cosmos 1726 2.3 16:21:25 10° SSW 16:25:04 71° W 16:28:44 10° N
Cosmos 921 Rocket 3.9 16:21:05 10° SSW 16:25:27 52° WNW 16:29:52 10° N
Cosmos 1939 Rocket 2.9 16:23:12 21° SE 16:25:36 51° ENE 16:29:28 10° N
CSL-04 Debris 4.3 16:21:09 10° S 16:26:34 77° WSW 16:32:02 10° NNW
Meteor 1-11 4.5 16:21:15 10° N 16:26:48 47° E 16:32:21 10° SSE
Cosmos 1356 4.4 16:33:00 10° SSW 16:36:19 48° W 16:39:40 10° N
ASTRO E2 4.1 16:35:04 10° W 16:38:35 29° SSW 16:39:41 25° S
CZ-4 R/B 3.4 16:38:50 10° SSW 16:42:26 30° W 16:46:07 10° NW
Lacrosse 5 rocket 2.3 16:39:23 10° NNW 16:42:02 31° NNE 16:42:02 31° NNE
ADEOS Rocket 3.7 16:41:27 10° NNE 16:48:41 43° E 16:55:23 10° SSE
Cosmos 1908 4.3 16:51:00 10° SSW 16:54:45 45° W 16:58:30 10° N
Cosmos 1242 Rocket 3.6 16:53:50 10° NNW 16:57:23 46° W 16:58:51 29° SSW
USA 238 DEB 3.5 16:50:59 10° SSW 16:57:31 65° ESE 16:59:52 41° NE
USA 238 3.5 16:51:06 10° SSW 16:57:38 64° ESE 16:59:53 42° NE
Ariane Rocket 3.0 16:53:05 13° S 16:57:41 81° WSW 17:02:48 10° NNW
Cosmos 2278 Rocket 2.2 16:52:56 10° SSW 16:58:36 81° WNW 17:04:18 10° NNE
BREEZE-M DEB (TANK) 4.0 17:06:45 10° SSW 17:23:18 10° NE 17:23:24 10° NE
USA 234 3.1 17:10:05 42° NE 17:12:35 89° NW 17:19:07 10° SW
H-2A R/B 4.0 17:19:01 17° N 17:19:01 17° N 17:20:20 10° N
CZ-4C R/B 4.1 17:11:03 10° NW 17:18:15 43° WSW 17:26:00 10° S
Cosmos 839 Rocket 4.1 17:12:04 10° NNW 17:18:26 82° ENE 17:19:24 68° SE
OAO 2 Rocket 3.7 17:15:54 10° W 17:20:29 63° NW 17:20:29 63° NW
NOSS 3-2 (A) 3.8 17:19:51 10° SSW 17:23:43 48° SSW 17:23:43 48° SSW
Cosmos 1833 Rocket 4.5 17:47:43 10° NNW 17:49:45 23° NNW 17:49:45 23° NNW
CZ-3B R/B 4.3 18:17:59 10° W 18:39:11 60° SSW 18:39:46 59° SSW
